Regional Weather Roundup
Issued by NWS Newport/Morehead, NC

Current Version | Previous Version | Text Only | Print | Product List | Glossary Off
Versions: 1 2 3 4 5 6 7 8 9 10 11 12 13 14 15 16 17 18 19 20 21 22 23 24 25 26 27 28 29 30 31 32 33 34 35 36 37 38 39 40 41 42 43 44 45 46 47 48 49 50
000 ASUS42 KMHX 302222 RWRMHX WEATHER ROUNDUP FOR EASTERN NORTH CAROLINA NATIONAL WEATHER SERVICE NEWPORT/MOREHEAD CITY NC 600 PM EDT WED JUL 30 2014 NOTE: "FAIR" INDICATES FEW OR NO CLOUDS BELOW 12,000 FEET WITH NO SIGNIFICANT WEATHER AND/OR OBSTRUCTIONS TO VISIBILITY NCZ015>017-031-032-045>047-102-103-302300- NORTH COAST CITY SKY/WX TMP DP RH WIND PRES REMARKS EDENTON SUNNY 81 60 49 SE3 30.04F ELIZABETH CITY PTSUNNY 78 62 57 E7 30.05S KITTY HAWK CLEAR 76 60 56 E7 30.05S MANTEO NOT AVBL $$ NCZ045>047-081-094-103-104-302300- CENTRAL COAST CITY SKY/WX TMP DP RH WIND PRES REMARKS FRISCO SUNNY 80 61 52 NE10 30.05S SWANQUARTER N/A 79 N/A N/A E7 30.00S $$ NCZ095-097-098-100-101-302300- SOUTHERN COAST CITY SKY/WX TMP DP RH WIND PRES REMARKS BEAUFORT SUNNY 81 66 60 E9 30.03S CEDAR ISLAND N/A 79 N/A N/A E13 30.09S JACKSONVILLE SUNNY 82 65 56 SE13 30.01F NEWPORT NOT AVBL PINEY ISLAND CLEAR 81 66 60 E12 30.03F WILMINGTON SUNNY 82 64 54 E10 30.01F $$ NCZ011>013-027>030-043-044-078>080-089-090>093-098-302300- COASTAL PLAIN CITY SKY/WX TMP DP RH WIND PRES REMARKS AHOSKIE SUNNY 78 64 62 CALM 30.05S CLINTON MOSUNNY 83 64 50 CALM 30.01F ELIZABETHTOWN PTSUNNY 83 61 48 CALM 30.01R GOLDSBORO SUNNY 83 66 55 NE8 30.00F GREENVILLE MOSUNNY 82 63 51 CALM 30.04F HAVELOCK SUNNY 82 62 50 E8 30.03F KENANSVILLE SUNNY 82 59 44 CALM 30.02F KINSTON MOSUNNY 84 59 42 E8 30.03F NEW BERN SUNNY 83 64 52 SE9 30.03F RICHLANDS SUNNY 84 59 42 E8 30.02S ROANOKE RAPIDS NOT AVBL ROCKY MOUNT PTSUNNY 83 62 49 E6 30.03F WASHINGTON SUNNY 79 63 56 E5 30.03F WHITEVILLE MOSUNNY 85 63 48 E5 30.00S $$ AMZ130-135-150-152-154-156-158-170-250-252-270-ANZ085-086-088-633-658-670-302300- MARINE OBSERVATIONS STATION/POSITION TIME TEMP WIND PRES WAVE SWELL AIR SEA DIR/SP/G HT/PER HT/PER (UTC) (F) (DEG/KT/KT) (MB) (FT/S) (FT/S) CHESAPEAKE LIGHT NOT AVBL BUOY 44014 2200 75 78 10/ 8/ 10 1017.7 3/ 8 2/ 8 DUCK 2200 77 77 90/ 8/ 9 1017.2 2E DUCK 2200 N/A 2/ 7 OREGON INLET 2200 76 78 60/ 8/ 11 1017.8 BUOY 44095 2200 78 N/A 3/ 7 20E OREGON INLET NOT AVBL HATTERAS CG 2200 78 80 60/ 7/ 12 1017.7 DIAMOND BUOY 2200 VRB 14/ 16 1017.0 4/ 6 2/ 8 CAPE LOOKOUT 2200 78 60/ 14/ 16 1016.9 BEAUFORT LAB 2200 79 83 100/ 10/ 14 1016.4 30 SE NEW RIVER 2200 79 81 60/ 14/ 17 1016.7 4/ 6 2/ 8 5 SE WRIGHTSVILL 2200 77 82 100/ 16/ 17 N/A BUOY 41002 2150 82 81 230/ 6/ 8 1015.2 4/ 6 3/ 6 BUOY 41004 2200 82 84 80/ 14/ 17 1014.7 3/ 5 2/ 8 $$

USA.gov is the U.S. government's official web portal to all federal, state and local government web resources and services.